Location: Grasslands National Park East Block
(49.0708°N, 106.5295°W)
Time: 11:33:06
(UTC-06:00)

Daily predictions for brighter satellites

Satellite Brightness Start Highest point End
(mag) Time Altitude Azimuth Time Altitude Azimuth Time Altitude Azimuth
IRS-1A Rocket 4.4 18:28:38 10° SSE 18:34:31 79° ENE 18:40:28 10° NNW
CZ-2C R/B 4.2 18:30:35 10° SSW 18:34:48 36° W 18:39:07 10° NNW
BREEZE-M DEB (TANK) 3.5 18:32:33 10° W 18:35:56 73° SSW 18:47:29 10° ESE
BREEZE-M DEB (TANK) 4.4 18:19:19 10° WSW 18:36:03 66° S 18:40:43 10° E
EO 1 Delta rocket 4.4 18:31:09 10° SSE 18:37:41 79° ENE 18:42:55 10° N
Cosmos 2322 3.8 18:32:05 10° NNW 18:37:51 85° ENE 18:43:35 10° SSE
Cosmos 1842 Rocket 3.8 18:33:47 10° S 18:38:06 51° E 18:42:25 10° NNE
Landsat 4 3.8 18:35:54 10° NNE 18:39:36 56° ESE 18:43:15 10° S
Cosmos 1315 Rocket 3.0 18:38:23 10° N 18:42:23 52° ENE 18:46:24 10° SSE
SL-8 R/B 4.2 18:37:47 10° SW 18:42:24 47° SSE 18:47:03 10° E
Cosmos 1726 3.8 18:40:37 10° ESE 18:42:41 15° E 18:44:46 10° NE
SMAP 3.6 18:39:27 10° S 18:44:05 67° WSW 18:48:45 10° NNW
Cosmos 1500 Rocket 3.5 18:41:04 10° N 18:45:26 76° ENE 18:49:46 10° SSE
Cosmos 2219 Rocket 2.6 18:41:50 10° NNW 18:47:10 42° NE 18:52:27 10° ESE
Meteor 1-16 Rocket 4.4 18:42:12 10° SSW 18:47:30 76° WNW 18:52:57 10° N
BREEZE-M DEB (TANK) 3.1 18:46:58 10° SSW 18:48:50 22° SSE 18:50:17 12° E
Meteor 1-28 Rocket 3.1 18:46:32 10° NNE 18:50:21 68° ESE 18:54:05 10° S
Meteor 2-1 Rocket 4.4 18:47:08 10° S 18:52:50 60° E 18:58:40 10° NNE
SL-08 R/B 4.5 18:48:29 10° S 18:54:38 83° E 19:00:47 10° N
Cosmos 158 Rocket 4.5 18:50:16 10° S 18:54:55 38° ESE 18:59:44 10° NE
Cosmos 1420 Rocket 4.0 18:50:59 10° NNW 18:56:20 85° ENE 19:01:38 10° SSE
APEX 3.8 18:54:34 10° SSE 18:56:57 21° ESE 18:58:26 15° ENE
FREGAT/IRIS 4.2 18:56:22 12° ESE 18:57:59 17° ENE 19:00:04 10° NNE
NOAA 12 4.2 18:54:09 10° SE 18:59:19 54° ENE 19:04:31 10° N
Cosmos 1484 Rocket 4.2 18:56:42 10° S 19:00:14 41° W 19:03:47 10° NNW
METEOR-M 4.1 18:56:07 10° SSE 19:01:27 80° ENE 19:06:50 10° NNW
Cosmos 1703 3.8 19:00:02 10° NNW 19:03:56 63° W 19:07:48 10° S
NOSS 0 Rocket 4.2 18:58:44 10° NNW 19:04:42 47° NE 19:10:37 10° SE
Cosmos 44 Rocket 3.9 19:01:18 10° S 19:05:32 35° ESE 19:09:30 12° NE
Lacrosse 5 rocket 2.8 19:02:09 10° WNW 19:06:05 30° N 19:09:34 11° NE
SJ-6B 3.9 19:06:28 15° ESE 19:08:27 22° ENE 19:11:22 10° NNE
CZ-4C R/B 2.8 19:05:28 10° S 19:10:08 33° ESE 19:15:06 11° NE
Sich 1 3.7 19:06:22 10° N 19:10:21 33° ENE 19:14:21 10° SE
RESURS DK-1 4.3 19:07:02 10° NW 19:10:46 33° WSW 19:14:29 10° S
Cosmos 1626 3.8 19:07:25 10° NNW 19:10:55 38° W 19:14:24 10° SSW
GENESIS II 4.2 19:07:05 10° SW 19:11:03 85° SE 19:15:03 10° NE
Resurs 01 Rocket 3.2 19:11:19 15° ENE 19:11:57 16° ENE 19:14:35 10° NNE
COSMO-SKYMED 1 2.5 19:08:10 10° NNE 19:12:31 64° ESE 19:16:49 10° S
Thor Agena Rocket 4.3 19:08:42 10° NE 19:13:06 29° E 19:17:27 10° SSE
Cosmos 1908 3.2 19:09:45 10° S 19:13:37 65° E 19:17:30 10° NNE
Cosmos 2333 4.2 19:07:59 10° NNW 19:13:45 87° ENE 19:19:31 10° SSE
HJ-1C 4.5 19:22:14 25° E 19:22:46 26° ENE 19:25:41 10° N
Cosmos 2237 Rocket 2.6 19:17:34 10° NNW 19:23:01 44° NE 19:27:16 16° ESE
H-2A R/B 3.3 19:19:40 10° SE 19:23:17 38° ENE 19:26:58 10° N
Cosmos 2151 4.4 19:19:32 10° NNW 19:23:36 42° W 19:27:36 10° SSW
Cosmos 1805 Rocket 3.5 19:20:02 10° N 19:24:25 66° E 19:28:48 10° SSE
Cosmos 1331 Rocket 4.3 19:19:57 10° NNW 19:25:01 45° ENE 19:29:11 14° SE
BREEZE-M DEB (TANK) 2.5 19:25:13 10° SSW 19:26:58 24° SE 19:26:59 24° SE
Gbstr 26 Del rocket 4.0 19:22:58 10° WNW 19:27:43 57° SSW 19:33:16 12° SE
Cosmos 1666 Rocket 3.6 19:29:23 10° N 19:33:39 53° ENE 19:37:53 10° SSE
Cosmos 2227 Rocket 3.3 19:30:25 10° SSE 19:34:03 22° ESE 19:34:03 22° ESE
SL-16 R/B 3.2 19:29:58 10° NNW 19:34:50 28° NE 19:36:40 23° ENE
Cosmos 1633 Rocket 3.2 19:34:51 10° N 19:39:11 51° ENE 19:43:25 10° SSE
Cosmos 1300 3.0 19:36:39 10° SSE 19:40:16 41° E 19:43:54 10° NNE
Cosmos 1892 4.4 19:38:30 10° NNE 19:40:01 18° NE 19:40:01 18° NE
ALOS 2.5 19:38:16 10° S 19:42:56 71° WSW 19:47:37 10° NNW
DMSP B5D1-3 4.4 19:38:26 10° NNE 19:43:35 78° ESE 19:48:44 10° S
Cosmos 2360 Rocket 4.4 19:38:56 10° NW 19:43:36 27° WSW 19:48:16 10° SSW
Aureole 2 Rocket 3.0 19:41:22 10° NNW 19:45:15 69° WSW 19:49:17 10° SSE
Cosmos 1269 Rocket 3.9 19:41:45 10° SSW 19:47:00 74° ESE 19:52:18 10° NNE
Cosmos 1980 3.6 19:41:41 10° NNW 19:47:20 66° ENE 19:51:11 21° SE
CZ-2D R/B 4.0 19:48:41 34° NE 19:48:41 34° NE 19:51:50 10° N
Meteor 2-3 Rocket 4.2 19:42:54 10° N 19:48:16 38° ENE 19:50:10 30° ESE
CSL-04 DEB 4.4 19:49:14 33° SE 19:50:46 54° ENE 19:54:41 10° N
ATLAS 5 CENTAUR R/B 3.9 19:47:44 10° NW 19:51:39 20° NNE 19:54:05 16° NE
Cosmos 1302 Rocket 4.3 19:48:33 10° NNW 19:53:35 45° ENE 19:55:06 36° ESE
COSMOS 2428 3.7 19:49:22 10° NW 19:54:47 46° WSW 20:00:11 10° S
Cosmos 2333 Rocket 2.3 19:52:10 10° NNW 19:57:56 78° WSW 20:03:41 10° SSE
Cosmos 1934 Rocket 3.9 19:52:42 10° S 19:59:02 73° E 20:05:24 10° NNE
Cosmos 1821 Rocket 4.0 19:52:57 10° S 19:59:07 88° W 20:05:28 10° N
FENGYUN 3A 4.4 19:58:28 10° S 20:03:44 53° W 20:09:04 10° NNW
Cosmos 2219 3.1 19:58:00 10° SSW 20:03:46 87° ESE 20:09:33 10° NNE
Cosmos 2221 3.6 20:00:05 10° SSW 20:04:16 47° WNW 20:08:31 10° N
Cosmos 2084 3.9 20:03:06 10° NW 20:06:47 48° SW 20:08:15 31° S
Spot 2 Rocket 3.8 20:06:39 43° ENE 20:06:54 43° ENE 20:11:41 10° N
Iridium 4 Rocket 4.3 20:02:00 10° SSW 20:07:38 62° W 20:13:32 10° N
Abrixas rocket 2.6 20:05:15 10° W 20:08:13 60° SW 20:08:13 60° SW
Cosmos 494 Rocket 4.0 20:05:58 10° S 20:10:52 50° ESE 20:10:55 50° ESE
USA 234 3.6 20:08:10 32° ENE 20:10:57 51° NNE 20:17:16 10° WNW
Cosmos 2098 Rocket 4.0 20:06:45 10° SSW 20:11:37 65° WNW 20:17:51 10° N
Cosmos 2297 Rocket 3.6 20:06:45 10° S 20:08:58 22° SSE 20:08:58 22° SSE
Cosmos 1110 Rocket 4.2 20:07:26 10° NNW 20:12:46 72° WSW 20:16:55 17° SSE
Cosmos 44 3.2 20:09:29 10° SW 20:13:47 66° NW 20:15:32 34° NNE
USA 32 3.9 20:10:17 10° N 20:15:32 65° E 20:17:10 42° SE
Cosmos 1726 3.1 20:14:02 10° SSW 20:17:36 46° WNW 20:21:11 10° N
Meteor 2-10 3.9 20:14:10 10° SSW 20:19:13 87° WNW 20:24:26 10° NNE
Meteor 2-2 Rocket 4.1 20:17:10 10° S 20:22:49 76° E 20:28:27 10° NNE
H-2A R/B 4.4 20:25:39 11° NNE 20:25:39 11° NNE 20:26:05 10° NNE
SL-8 R/B 3.5 20:19:56 10° W 20:24:46 83° S 20:25:05 77° ESE
Cosmos 2123 Rocket 4.3 20:19:00 10° NNW 20:25:11 69° W 20:31:25 10° S
Cosmos 2219 Rocket 3.5 20:25:57 10° NW 20:31:05 38° WSW 20:36:13 10° S
Cosmos 1470 Rocket 3.5 20:27:32 10° N 20:31:47 79° NNW 20:31:47 79° NNW
Cosmos 1605 Rocket 3.8 20:27:26 10° S 20:33:33 89° E 20:39:41 10° N
BREEZE M DEB (TANK) 3.8 20:31:21 10° W 20:33:34 25° WSW 20:33:34 25° WSW
Cosmos 1153 Rocket 4.3 20:31:38 10° S 20:37:42 68° E 20:43:54 10° NNE
Envisat 2.9 20:42:01 83° NNE 20:42:01 83° NNE 20:47:00 10° NNW
SJ-6B 4.2 20:42:09 31° SW 20:42:58 34° W 20:46:25 10° NNW
Lacrosse 5 rocket 3.0 20:42:20 10° NW 20:45:15 28° NNW 20:45:15 28° NNW
Cosmos 44 Rocket 4.3 20:42:31 10° WSW 20:47:00 42° NW 20:48:15 34° N
Resurs 01 Rocket 2.2 20:48:54 52° NW 20:48:54 52° NW 20:52:20 10° NNW
CZ-4C R/B 2.8 20:52:58 10° WSW 20:58:18 56° NW 21:00:19 39° NNE
Meteor 2-17 Rocket 4.5 21:06:23 71° N 21:06:23 71° N 21:11:48 10° N
Cosmos 2237 Rocket 3.5 21:01:49 10° NW 21:07:02 37° WSW 21:09:09 28° SSW
USA 267 4.5 21:19:48 27° SSW 21:19:48 27° SSW 21:22:42 10° SW
Cosmos 2227 Rocket 3.2 21:12:30 10° SW 21:16:00 39° SW 21:16:00 39° SW
SL-16 R/B 2.7 21:13:47 10° NNW 21:18:33 57° WNW 21:18:33 57° WNW
ATLAS 5 CENTAUR R/B 3.7 21:32:30 10° NW 21:35:37 29° N 21:35:37 29° N
USA 234 3.8 21:55:31 53° WNW 21:55:31 53° WNW 22:00:21 10° WNW
